Flag for United Kingdom Weather past 2 weeks in Weymouth, England, United Kingdom

Now
61 °F

Cool.


Feels Like: 61 °F
Forecast: 55 / 64 °F
Wind: 16 mph from North

Location: Isle Of Portland

Current Time: Aug 31, 2015 at 5:23:46 PM

Latest Report: Aug 31, 2015 at 4:00 PM


Visibility: 28 mi

Pressure: 29.96 "Hg

Humidity: 86%

Dew point: 56 °F

Location of WeymouthLocation

Historic Weather in Weymouth — Graph

°F

Weymouth temperature yesterday

Maximum temperature yesterday: 67 °F (at 12:00 PM)
Minimum temperature yesterday: 59 °F (at 4:00 AM)
Average temperature yesterday: 62 °F

Past Weeks' High & Low Weather Summary

 TemperatureHumidityPressure
High68 °F (Aug 22, 11:00 AM)100% (Aug 19, 5:00 PM)30.15 "Hg (Aug 19, 5:00 PM)
Low56 °F (Aug 24, 6:00 PM)62% (Aug 16, 5:00 PM)29.41 "Hg (Aug 24, 7:00 AM)
Average61 °F89%29.90 "Hg
* Reported Aug 16 4:00 PM — Aug 31 4:00 PM, Weymouth, Weather by CustomWeather, © 2015

Note: Actual official high and low records may vary slightly from our data, if they occured in-between our weather recording intervals... More about our weather records

Advertising

Weymouth weather history for previous 24 hours

 ConditionsComfort  
Time TempWeatherWind HumidityBarometerVisibility
4:00 PM
Mon, Aug 31
61 °FCool.16 mph86%29.96 "Hg28 mi
3:00 PM63 °FMild.13 mph84%29.96 "Hg22 mi
2:00 PM61 °FCool.15 mph87%29.95 "Hg28 mi
1:00 PM61 °FCool.14 mph88%29.94 "Hg28 mi
12:00 PM60 °FCool.10 mph94%29.93 "Hg19 mi
11:00 AM59 °FDrizzle. Cloudy.7 mph96%29.93 "Hg15 mi
10:00 AM59 °FLight rain. Cloudy.12 mph96%29.91 "Hg9 mi
9:00 AM59 °FLight rain. Cloudy.12 mph98%29.89 "Hg7 mi
8:00 AM60 °FRain. Cloudy.13 mph99%29.90 "Hg5 mi
7:00 AM59 °FRain. Cloudy.7 mph99%29.91 "Hg3 mi
6:00 AM60 °FRain. Overcast.14 mph99%29.90 "Hg2 mi
5:00 AM60 °FRain. Overcast.13 mph98%29.92 "Hg2 mi
4:00 AM60 °FLight freezing rain. Overcast.10 mph97%29.93 "Hg2 mi
3:00 AM60 °FRain showers. Overcast.9 mph97%29.95 "Hg3 mi
2:00 AM61 °FFog.9 mph96%29.96 "Hg4 mi
1:00 AM61 °FCool.7 mph97%29.98 "Hg4 mi
12:00 AM61 °FRain showers. Overcast.16 mph97%29.96 "Hg4 mi
11:00 PM
Sun, Aug 30
61 °FCool.14 mph94%29.98 "Hg7 mi
10:00 PM62 °FCool.16 mph93%30.00 "Hg9 mi
9:00 PM62 °FCool.13 mph94%30.01 "Hg11 mi
8:00 PM62 °FRain showers. Overcast.10 mph92%30.00 "Hg12 mi
7:00 PM63 °FRain showers. Cloudy.14 mph89%30.01 "Hg10 mi
6:00 PM64 °FMild.10 mph86%30.01 "Hg25 mi
5:00 PM65 °FMild.10 mph82%30.01 "Hg22 mi
Weather by CustomWeather, © 2015

See weather overviewHow to use our weather pages